EW6749 Weather Reports


Display with metric or nautical units.
time (UTC)temp
F
wind
direction
speed
MPH
gust
MPH
rain 1hr
in
rain 24hr
in
rain mn
in
humidity
%
barometer
mb
20220704204020 78 293 1.0 4.0 0.00 0.00 0.00 57 1015.7
20220704203021 79 293 1.0 2.0 0.00 0.00 0.00 56 1015.7
20220704202021 79 0.0 2.0 0.00 0.00 0.00 56 1015.6
20220704201021 78 0.0 5.0 0.00 0.00 0.00 57 1015.6
20220704200021 78 113 1.0 3.0 0.00 0.00 0.00 57 1015.8
20220704195020 77 0.0 1.0 0.00 0.00 0.00 57 1015.9
20220704194020 77 0.0 0.0 0.00 0.00 0.00 58 1016.0
20220704193021 76 0.0 3.0 0.00 0.00 0.00 59 1016.0
20220704192021 75 0.0 1.0 0.00 0.00 0.00 60 1016.1
20220704191021 74 0.0 1.0 0.00 0.00 0.00 60 1016.1
20220704190021 74 0.0 1.0 0.00 0.00 0.00 61 1016.2
20220704185020 74 0.0 1.0 0.00 0.00 0.00 61 1016.1
20220704184021 73 0.0 1.0 0.00 0.00 0.00 62 1016.1
20220704183023 73 0.0 3.0 0.00 0.00 0.00 61 1016.2
20220704182020 73 0.0 1.0 0.00 0.00 0.00 62 1016.3
20220704181020 72 0.0 2.0 0.00 0.00 0.00 63 1016.2
20220704180020 72 0.0 1.0 0.00 0.00 0.00 63 1016.1
20220704175020 72 0.0 1.0 0.00 0.00 0.00 64 1016.2
20220704174021 71 0.0 1.0 0.00 0.00 0.00 65 1016.3
20220704173020 71 0.0 3.0 0.00 0.00 0.00 66 1016.3
20220704172020 70 0.0 1.0 0.00 0.00 0.00 66 1016.3
20220704171021 69 0.0 1.0 0.00 0.00 0.00 67 1016.3
20220704170020 69 0.0 2.0 0.00 0.00 0.00 68 1016.4
20220704165021 68 0.0 1.0 0.00 0.00 0.00 69 1016.4
20220704164021 68 0.0 1.0 0.00 0.00 0.00 69 1016.5
20220704163021 68 0.0 1.0 0.00 0.00 0.00 70 1016.5
20220704162020 67 0.0 1.0 0.00 0.00 0.00 71 1016.6
20220704161020 66 0.0 2.0 0.00 0.00 0.00 72 1016.5
20220704160020 65 0.0 1.0 0.00 0.00 0.00 72 1016.5
20220704155020 65 0.0 1.0 0.00 0.00 0.00 73 1016.5
20220704154020 64 0.0 1.0 0.00 0.00 0.00 75 1016.5
20220704153022 64 0.0 2.0 0.00 0.00 0.00 75 1016.5
20220704152020 63 0.0 1.0 0.00 0.00 0.00 77 1016.5
20220704151020 62 0.0 2.0 0.00 0.00 0.00 77 1016.4
20220704150020 62 0.0 2.0 0.00 0.00 0.00 78 1016.3
20220704145020 61 0.0 1.0 0.00 0.00 0.00 79 1016.2
20220704144020 61 0.0 1.0 0.00 0.00 0.00 80 1016.3
20220704143023 60 0.0 1.0 0.00 0.00 0.00 80 1016.3
20220704142022 60 0.0 0.0 0.00 0.00 0.00 81 1016.3
20220704141020 59 0.0 0.0 0.00 0.00 0.00 82 1016.3
20220704140022 58 0.0 0.0 0.00 0.00 0.00 82 1016.2
20220704135022 58 0.0 0.0 0.00 0.00 0.00 82 1016.2
20220704134022 57 0.0 1.0 0.00 0.00 0.00 82 1016.2
20220704133022 56 0.0 1.0 0.00 0.00 0.00 82 1016.2
20220704132022 56 0.0 0.0 0.00 0.00 0.00 82 1016.1
20220704131022 56 0.0 0.0 0.00 0.00 0.00 81 1016.1
20220704130022 56 0.0 0.0 0.00 0.00 0.00 81 1016.1
20220704125022 56 0.0 0.0 0.00 0.00 0.00 82 1016.1
20220704124022 56 0.0 0.0 0.00 0.00 0.00 82 1016.1
20220704123022 55 0.0 0.0 0.00 0.00 0.00 83 1016.1
20220704122022 55 0.0 0.0 0.00 0.00 0.00 83 1016.1
20220704121022 55 0.0 0.0 0.00 0.00 0.00 83 1016.0
20220704120022 55 0.0 0.0 0.00 0.00 0.00 82 1016.1
20220704115022 55 0.0 0.0 0.00 0.00 0.00 82 1016.1
20220704114022 56 0.0 0.0 0.00 0.00 0.00 80 1016.1
20220704113022 56 0.0 0.0 0.00 0.00 0.00 80 1016.1
20220704112021 56 0.0 0.0 0.00 0.00 0.00 80 1016.2
20220704111022 57 0.0 0.0 0.00 0.00 0.00 80 1016.1
20220704110022 57 0.0 0.0 0.00 0.00 0.00 80 1016.2
20220704105022 57 0.0 0.0 0.00 0.00 0.00 80 1016.2
20220704104021 56 0.0 0.0 0.00 0.00 0.00 80 1016.4
20220704103022 56 0.0 0.0 0.00 0.00 0.00 80 1016.4
20220704102022 56 0.0 0.0 0.00 0.00 0.00 80 1016.4
20220704101022 56 0.0 0.0 0.00 0.00 0.00 80 1016.3
20220704100022 55 0.0 0.0 0.00 0.00 0.00 80 1016.3
20220704095022 55 0.0 0.0 0.00 0.00 0.00 80 1016.4
20220704094021 55 0.0 0.0 0.00 0.00 0.00 80 1016.4
20220704093021 55 0.0 1.0 0.00 0.00 0.00 79 1016.4
20220704092022 54 0.0 0.0 0.00 0.00 0.00 79 1016.5
20220704091022 54 0.0 0.0 0.00 0.00 0.00 80 1016.5
20220704090022 53 0.0 0.0 0.00 0.00 0.00 80 1016.6
20220704085022 53 0.0 0.0 0.00 0.00 0.00 81 1016.5
20220704084021 53 0.0 0.0 0.00 0.00 0.00 82 1016.4
20220704083021 53 0.0 0.0 0.00 0.00 0.00 81 1016.5
20220704082022 53 0.0 0.0 0.00 0.00 0.00 81 1016.4
20220704081022 53 0.0 0.0 0.00 0.00 0.00 81 1016.4
20220704080022 53 0.0 0.0 0.00 0.00 0.00 81 1016.4
20220704075021 54 0.0 1.0 0.00 0.00 0.00 81 1016.5
20220704074021 54 0.0 0.0 0.00 0.00 0.00 80 1016.5
20220704073021 54 0.0 0.0 0.00 0.00 0.00 80 1016.6
20220704072021 54 0.0 1.0 0.00 0.00 0.00 80 1016.7
20220704071021 54 0.0 0.0 0.00 0.00 0.00 79 1016.7
20220704070021 54 0.0 0.0 0.00 0.00 0.00 79 1016.7
20220704065022 54 0.0 0.0 0.00 0.00 0.00 78 1016.8
20220704064022 54 0.0 0.0 0.00 0.00 0.00 78 1016.8
20220704063022 54 0.0 0.0 0.00 0.00 0.00 78 1016.8
20220704062022 55 0.0 0.0 0.00 0.00 0.00 77 1016.8
20220704061021 55 0.0 0.0 0.00 0.00 0.00 78 1016.8
20220704060022 55 0.0 0.0 0.00 0.00 0.00 77 1016.9
20220704055023 55 0.0 0.0 0.00 0.00 0.00 77 1016.9
20220704054022 56 0.0 0.0 0.00 0.00 0.00 76 1016.8
20220704053022 56 0.0 0.0 0.00 0.00 0.00 76 1017.0
20220704052022 56 0.0 0.0 0.00 0.00 0.00 75 1016.9
20220704051021 57 0.0 0.0 0.00 0.00 0.00 74 1016.9
20220704050021 57 0.0 0.0 0.00 0.00 0.00 74 1016.8
20220704045022 58 0.0 0.0 0.00 0.00 0.00 73 1016.7
20220704044022 58 0.0 0.0 0.00 0.00 0.00 73 1016.8
20220704043022 58 0.0 0.0 0.00 0.00 0.00 72 1016.6
20220704042022 59 0.0 0.0 0.00 0.00 0.00 71 1016.4
20220704041021 59 0.0 1.0 0.00 0.00 0.00 71 1016.5
20220704040021 59 0.0 1.0 0.00 0.00 0.00 71 1016.2
20220704035021 60 0.0 0.0 0.00 0.00 0.00 69 1016.2
20220704034022 60 0.0 0.0 0.00 0.00 0.00 69 1016.2
20220704033021 61 0.0 1.0 0.00 0.00 0.00 69 1016.0
20220704032021 61 0.0 1.0 0.00 0.00 0.00 67 1016.1
20220704031021 62 0.0 1.0 0.00 0.00 0.00 67 1016.1
20220704030022 62 0.0 2.0 0.00 0.00 0.00 67 1016.0
20220704025022 62 0.0 1.0 0.00 0.00 0.00 67 1016.0
20220704024021 63 0.0 1.0 0.00 0.00 0.00 66 1015.9
20220704023022 64 0.0 3.0 0.00 0.00 0.00 63 1015.9
20220704022021 64 113 1.0 3.0 0.00 0.00 0.00 61 1015.9
20220704021022 66 0.0 2.0 0.00 0.00 0.00 60 1015.8
20220704020021 66 135 1.0 3.0 0.00 0.00 0.00 58 1015.8
20220704015021 67 0.0 2.0 0.00 0.00 0.00 57 1015.7
20220704014021 68 0.0 4.0 0.00 0.00 0.00 56 1015.6
20220704013021 69 135 1.0 4.0 0.00 0.00 0.00 55 1015.5
20220704012021 70 0.0 3.0 0.00 0.00 0.00 55 1015.5
20220704011022 70 0.0 2.0 0.00 0.00 0.00 56 1015.5
20220704010021 70 0.0 4.0 0.00 0.00 0.00 56 1015.5
20220704005021 70 113 1.0 6.0 0.00 0.00 0.00 57 1015.5
20220704004022 70 135 2.0 5.0 0.00 0.00 0.00 57 1015.6
20220704003021 71 113 1.0 5.0 0.00 0.00 0.00 55 1015.7
20220704002021 72 0.0 4.0 0.00 0.00 0.00 55 1015.7
20220704001021 72 0.0 1.0 0.00 0.00 0.00 54 1015.7
20220704000022 72 0.0 2.0 0.00 0.00 0.00 55 1015.8
20220703235022 72 0.0 3.0 0.00 0.00 0.00 55 1015.8
20220703234021 72 135 1.0 5.0 0.00 0.00 0.00 55 1015.9
20220703233021 71 135 1.0 4.0 0.00 0.00 0.00 55 1016.0
20220703232021 72 293 1.0 3.0 0.00 0.00 0.00 55 1016.0
20220703231021 72 0.0 4.0 0.00 0.00 0.00 55 1016.1
20220703230021 72 135 1.0 5.0 0.00 0.00 0.00 54 1016.2
20220703225021 72 135 1.0 7.0 0.00 0.00 0.00 55 1016.3
20220703224021 73 135 1.0 4.0 0.00 0.00 0.00 54 1016.4
20220703223021 72 135 1.0 5.0 0.00 0.00 0.00 54 1016.5
20220703222021 72 0.0 3.0 0.00 0.00 0.00 53 1016.5
20220703221021 72 0.0 1.0 0.00 0.00 0.00 53 1016.6
20220703220021 72 0.0 5.0 0.00 0.00 0.00 53 1016.7
20220703215021 71 270 1.0 3.0 0.00 0.00 0.00 54 1016.7
20220703214023 71 0.0 3.0 0.00 0.00 0.00 54 1016.8
20220703213021 71 0.0 2.0 0.00 0.00 0.00 55 1016.9
20220703212021 70 0.0 2.0 0.00 0.00 0.00 57 1017.0
20220703211021 70 113 1.0 8.0 0.00 0.00 0.00 57 1017.1
20220703210021 70 293 1.0 4.0 0.00 0.00 0.00 58 1017.0
20220703205022 70 135 2.0 8.0 0.00 0.00 0.00 57 1017.1